Skip to main content

Cabo da Roca

ID 1210750 · 38.7817, -9.4975 map

Latest reading · 2026-05-09 19:00 (Europe/Lisbon)

Temperature
15.3 °C
Humidity
78 %
Pressure
Precipitation
0.0 mm
Radiation
1,425 W/m²
Wind speed
45.4 km/h
Wind direction
S · South

24-hour history

Time (Europe/Lisbon) Temp Humidity Pressure Rain Wind Dir
2026-05-09 19:00 15.3 °C 78 % 0.0 mm 45.4 km/h S
2026-05-09 18:00 14.9 °C 86 % 0.0 mm 37.8 km/h S
2026-05-09 17:00 14.4 °C 84 % 0.1 mm 37.4 km/h S
2026-05-09 16:00 14.6 °C 87 % 3.5 mm 35.3 km/h S
2026-05-09 15:00 15.7 °C 83 % 0.0 mm 30.6 km/h S
2026-05-09 14:00 15.3 °C 86 % 0.0 mm 51.1 km/h S
2026-05-09 13:00 15.1 °C 82 % 0.0 mm 53.6 km/h S
2026-05-09 12:00 15.6 °C 80 % 0.0 mm 46.8 km/h S
2026-05-09 11:00 14.9 °C 84 % 0.0 mm 40.3 km/h S
2026-05-09 10:00 14.1 °C 87 % 0.1 mm 36.4 km/h S
2026-05-09 09:00 13.0 °C 91 % 0.0 mm 32.4 km/h S
2026-05-09 08:00 11.9 °C 95 % 0.0 mm 29.2 km/h SE
2026-05-09 07:00 11.5 °C 100 % 0.7 mm 15.8 km/h S
2026-05-09 06:00 11.4 °C 96 % 6.5 mm 27.7 km/h S
2026-05-09 05:00 12.7 °C 95 % 2.0 mm 44.3 km/h SE
2026-05-09 04:00 13.5 °C 91 % 0.0 mm 32.0 km/h SE
2026-05-09 03:00 13.3 °C 89 % 0.0 mm 28.4 km/h S
2026-05-09 02:00 12.6 °C 87 % 0.0 mm 32.4 km/h S
2026-05-09 01:00 13.8 °C 89 % 0.0 mm 38.5 km/h S
2026-05-09 00:00 14.1 °C 92 % 0.2 mm 61.6 km/h S
2026-05-08 23:00 14.2 °C 92 % 1.7 mm 74.5 km/h S
2026-05-08 22:00 14.9 °C 85 % 0.1 mm 36.7 km/h SE
2026-05-08 21:00 15.3 °C 80 % 0.0 mm 40.3 km/h SE
2026-05-08 20:00 15.2 °C 83 % 0.0 mm 45.7 km/h S